Retour au catalogue

STARLINK-38264

ActifCommunicationsSSO
NORAD 100308·PAYLOAD·🇺🇸 United States

Lancé Aug 12, 2026 depuis Vandenberg Space Force Base

Loading…

Prochains Passages (prochaines 24 heures)

TLE

FraisSource: Space-Track

Époque: Sep 14, 2026, 14:23 UTC

1 A0308U 26184H   26257.59934642  .00003323  00000-0  10521-3 0  9999
2 A0308  97.2828 122.7658 0002127 102.3222 257.8259 15.33448340  6452

Suivez STARLINK-38264 en temps réel avec AllMySat

Download on the App Store